Torna al catalogo

SCOUT X-4 DEB

AttivoPO
NORAD 805·DEBRIS·🇺🇸 United States

Lanciato Jun 4, 1964 da Vandenberg Space Force Base

Loading…

Prossimi Passaggi (prossime 24 ore)

TLE

AggiornatoSource: Space-Track

Epoca: Sep 14, 2026, 03:46 UTC

1 00805U 64026B   26257.15700880  .00000953  00000-0  32120-3 0  9990
2 00805  89.8543 327.3544 0026956 247.1633 112.6719 14.36240628202809

Traccia SCOUT X-4 DEB in tempo reale con AllMySat

Download on the App Store